Terminal Aerodrome Forecast
Issued by NWS Austin/San Antonio, TX

Home | Current Version | Previous Version | Text Only | Print | Product List | Glossary On
Versions: 1 2 3 4 5 6 7 8 9 10 11 12 13 14 15 16 17 18
000
FTUS44 KEWX 031136
TAFSAT
TAF
KSAT 031136Z 0312/0418 14004KT P6SM BKN011
      TEMPO 0312/0314 BKN008
     FM031400 14006KT P6SM BKN015
     FM031600 12007KT P6SM SCT040
     FM032200 13010KT P6SM SCT060
     FM040800 16008KT P6SM BKN015=

USA.gov is the U.S. government's official web portal to all federal, state and local government web resources and services.